Overview Statistics Trail Chart Weather Telemetry Raw packets
 

This is the latest recevied weather packets stored in our database for station/object SR3WXA. If no packets are shown the sender has not sent any weather packets the latest 10 day(s).

<< 161 162 163 164 165 166 167 >>
Time Temp. Humidity Pressure Rain* Wind** Luminosity Snow
1787902063 18.33° C 64% 1016.4 hPa 0 mm - 218 W/m² -
1787901967 18.33° C 64% 1016.4 hPa 0 mm - 218 W/m² -
1787901737 18.33° C 64% 1016.1 hPa 0 mm - 218 W/m² -
1787901667 18.33° C 64% 1016.1 hPa 0 mm - 218 W/m² -
1787901461 18.33° C 65% 1016 hPa 0 mm - 229 W/m² -
1787901367 18.33° C 65% 1016 hPa 0 mm - 229 W/m² -
1787901107 17.78° C 66% 1016.1 hPa 0 mm - 243 W/m² -
1787901067 17.78° C 66% 1016.1 hPa 0 mm - 243 W/m² -
1787900849 17.78° C 66% 1016.1 hPa 0 mm - 192 W/m² -
1787900767 17.78° C 66% 1016.1 hPa 0 mm - 192 W/m² -
1787900526 17.78° C 66% 1016.2 hPa 0 mm - 179 W/m² -
1787900467 17.78° C 66% 1016.2 hPa 0 mm - 179 W/m² -
1787900265 17.78° C 66% 1016.2 hPa 0 mm - 171 W/m² -
1787900168 17.78° C 66% 1016.2 hPa 0 mm - 171 W/m² -
1787899867 17.78° C 67% 1016.3 hPa 0 mm - 163 W/m² -
1787899567 17.22° C 67% 1016.4 hPa 0 mm - 167 W/m² -
1787899331 17.22° C 67% 1016.4 hPa 0 mm - 169 W/m² -
1787899267 17.22° C 67% 1016.4 hPa 0 mm - 169 W/m² -
1787899078 17.22° C 67% 1016.3 hPa 0 mm - 172 W/m² -
1787898967 17.22° C 67% 1016.3 hPa 0 mm - 172 W/m² -
1787898732 17.22° C 67% 1016.5 hPa 0 mm - 165 W/m² -
1787898667 17.22° C 67% 1016.5 hPa 0 mm - 165 W/m² -
1787898591 17.22° C 68% 1016.7 hPa 0 mm - 169 W/m² -
1787898441 17.22° C 68% 1016.7 hPa 0 mm - 169 W/m² -
1787898367 17.22° C 68% 1016.7 hPa 0 mm - 169 W/m² -

* Rain latest hour (hover to see other rain measurements)
** Current wind speed in m/s (hover to see current wind gust speed)